Regional Weather Roundup
Issued by NWS Newport/Morehead, NC

Current Version | Previous Version | Text Only | Print | Product List | Glossary Off
Versions: 1 2 3 4 5 6 7 8 9 10 11 12 13 14 15 16 17 18 19 20 21 22 23 24 25 26 27 28 29 30 31 32 33 34 35 36 37 38 39 40 41 42 43 44 45 46 47 48 49 50
000 ASUS42 KMHX 220313 RWRMHX WEATHER ROUNDUP FOR EASTERN NORTH CAROLINA NATIONAL WEATHER SERVICE NEWPORT/MOREHEAD CITY NC 1000 PM EST TUE FEB 21 2017 NOTE: "FAIR" INDICATES FEW OR NO CLOUDS BELOW 12,000 FEET WITH NO SIGNIFICANT WEATHER AND/OR OBSTRUCTIONS TO VISIBILITY NCZ015>017-031-032-045>047-102-103-220400- NORTH COAST CITY SKY/WX TMP DP RH WIND PRES REMARKS EDENTON CLOUDY 49 45 85 CALM 30.18F ELIZABETH CITY CLOUDY 48 44 86 N6 30.18S KITTY HAWK NOT AVBL MANTEO CLOUDY 49 49 99 CALM 30.18S $$ NCZ045>047-081-094-103-104-220400- CENTRAL COAST CITY SKY/WX TMP DP RH WIND PRES REMARKS FRISCO PTCLDY 61 51 70 SE7 30.15F $$ NCZ095-097-098-100-101-220400- SOUTHERN COAST CITY SKY/WX TMP DP RH WIND PRES REMARKS BEAUFORT CLOUDY 52 51 97 CALM 30.15S CEDAR ISLAND NOT AVBL JACKSONVILLE PTCLDY 55 51 86 NE6 30.13F PINEY ISLAND PTCLDY N/A N/A N/A NE6 30.15S HAZE WILMINGTON CLOUDY 55 53 93 E5 30.12F $$ NCZ011>013-027>030-043-044-078>080-089-090>093-098-220400- COASTAL PLAIN CITY SKY/WX TMP DP RH WIND PRES REMARKS AHOSKIE N/A 48 43 81 CALM 30.18S CLINTON CLOUDY 55 51 85 CALM 30.14S ELIZABETHTOWN MOCLDY 56 51 82 CALM 30.12F GOLDSBORO PTCLDY 55 52 90 E5 30.13S GREENVILLE CLOUDY 52 46 82 E3 30.17F HAVELOCK CLOUDY 52 50 93 CALM 30.16S KENANSVILLE NOT AVBL KINSTON PTCLDY 55 48 76 E5 30.15F NEW BERN MOCLDY 52 50 93 E3 30.16F RICHLANDS PTCLDY 53 49 86 NE7 30.14F ROCKY MOUNT CLOUDY 52 46 80 E3 30.15F WASHINGTON MOCLDY 49 45 87 NE5 30.17S WHITEVILLE CLOUDY 58 52 79 E5 30.11S $$ AMZ130-135-150-152-154-156-158-170-250-252-270-ANZ085-086-088-633-658-670-220400- MARINE OBSERVATIONS STATION/POSITION TIME TEMP WIND PRES WAVE SWELL AIR SEA DIR/SP/G HT/PER HT/PER (UTC) (F) (DEG/KT/KT) (MB) (FT/S) (FT/S) CHESAPEAKE LIGHT NOT AVBL 64 E VA BEACH 0250 53 52 90/ 10/ 12 1021.5 4/ 8 3/ 8 DUCK 0248 49 49 40/ 7/ 8 1021.4 2 E DUCK 0300 49 N/A 3/ 6 OREGON INLET 0242 49 51 10/ 4/ 5 1021.7 13E OREGON INLT NOT AVBL HATTERAS CG 0248 61 59 150/ 7/ 9 1020.7 DIAMOND BUOY 0250 63 74 140/ 12/ 16 1021.3 4/10 3/10 CAPE LOOKOUT 0300 62 110/ 7/ 8 1020.3 BEAUFORT LAB 0248 53 54 20/ 3/ 4 1019.8 30 SE NEW RVR IN 0208 66 140/ 14/ 17 1020.3 30 SE NEW RVR IN 0243 69 N/A 4/ 4 27 SE WRIGHTSVLE 0208 65 64 130/ 14/ 21 1019.5 5 SE WRIGHTSVLE 0208 58 56 70/ 10/ 14 1020.0 225 S CAPE HAT 0250 64 71 80/ 12/ 16 1020.1 5/ 8 3/ 8 41 SE CHARLESTON 0250 70 69 130/ 14/ 16 1017.3 4/ 5 2/12 $$

USA.gov is the U.S. government's official web portal to all federal, state and local government web resources and services.